OK2ZAW-21 Weather Reports


time (UTC)temp
C
wind
direction
speed
KPH
gust
KPH
rain 1hr
cm
rain 24hr
cm
rain mn
cm
humidity
%
barometer
mb
20260504150852 21 0 0.0 0.0 0.00 0.00 0.00 42 1015.5
20260504150845 21 0 0.0 0.0 0.00 0.00 0.00 42 1015.5
20260504150555 22 0 0.0 0.0 0.00 0.00 0.00 41 1015.5
20260504150330 22 0 0.0 0.0 0.00 0.00 0.00 41 1015.5
20260504150208 23 0 0.0 0.0 0.00 0.00 0.00 40 1015.6
20260504141323 24 0 0.0 0.0 0.00 0.00 0.00 39 1016.0
20260504141259 24 0 0.0 0.0 0.00 0.00 0.00 40 1016.0
20260504141253 24 0 0.0 0.0 0.00 0.00 0.00 40 1016.0
20260504141221 24 0 0.0 0.0 0.00 0.00 0.00 40 1016.0
20260504141146 24 0 0.0 0.0 0.00 0.00 0.00 40 1015.9
20260504141121 24 0 0.0 0.0 0.00 0.00 0.00 40 1015.9
20260504141115 24 0 0.0 0.0 0.00 0.00 0.00 40 1015.9
20260504141009 24 0 0.0 0.0 0.00 0.00 0.00 40 1016.0
20260504140945 24 0 0.0 0.0 0.00 0.00 0.00 41 1015.9
20260504140939 24 0 0.0 0.0 0.00 0.00 0.00 41 1015.9
20260504140913 24 0 0.0 0.0 0.00 0.00 0.00 41 1015.9
20260504140907 24 0 0.0 0.0 0.00 0.00 0.00 41 1015.9
20260504140835 24 0 0.0 0.0 0.00 0.00 0.00 40 1016.0
20260504140811 24 0 0.0 0.0 0.00 0.00 0.00 39 1016.0
20260504140805 24 0 0.0 0.0 0.00 0.00 0.00 39 1016.0
20260504140739 24 0 0.0 0.0 0.00 0.00 0.00 40 1016.0
20260504140733 24 0 0.0 0.0 0.00 0.00 0.00 40 1016.0
20260504140703 24 0 0.0 0.0 0.00 0.00 0.00 40 1016.1
20260504140657 24 0 0.0 0.0 0.00 0.00 0.00 40 1016.1
20260504140633 23 0 0.0 0.0 0.00 0.00 0.00 40 1016.0
20260504140627 23 0 0.0 0.0 0.00 0.00 0.00 40 1016.0
20260504140557 23 0 0.0 0.0 0.00 0.00 0.00 40 1016.1
20260504140525 23 0 0.0 0.0 0.00 0.00 0.00 41 1016.1
20260504140457 23 0 0.0 0.0 0.00 0.00 0.00 41 1016.1
20260504140451 23 0 0.0 0.0 0.00 0.00 0.00 41 1016.1
20260504140421 23 0 0.0 0.0 0.00 0.00 0.00 41 1016.2
20260504140357 23 0 0.0 0.0 0.00 0.00 0.00 42 1016.0
20260504140351 23 0 0.0 0.0 0.00 0.00 0.00 42 1016.0
20260504140313 23 0 0.0 0.0 0.00 0.00 0.00 42 1016.1
20260504140243 23 0 0.0 0.0 0.00 0.00 0.00 43 1016.1
20260504140217 23 0 0.0 0.0 0.00 0.00 0.00 43 1016.0
20260504140212 23 0 0.0 0.0 0.00 0.00 0.00 43 1016.0
20260504140147 23 0 0.0 0.0 0.00 0.00 0.00 43 1016.0
20260504140141 23 0 0.0 0.0 0.00 0.00 0.00 43 1016.0
20260504140109 23 0 0.0 0.0 0.00 0.00 0.00 42 1016.1
20260504130821 23 0 0.0 0.0 0.00 0.00 0.00 39 1016.4
20260504130749 23 0 0.0 0.0 0.00 0.00 0.00 38 1016.4
20260504130645 23 0 0.0 0.0 0.00 0.00 0.00 40 1016.4
20260504130611 24 0 0.0 0.0 0.00 0.00 0.00 37 1016.4
20260504130604 23 0 0.0 0.0 0.00 0.00 0.00 40 1016.4
20260504130539 23 0 0.0 0.0 0.00 0.00 0.00 40 1016.4
20260504130533 23 0 0.0 0.0 0.00 0.00 0.00 40 1016.4
20260504130509 23 0 0.0 0.0 0.00 0.00 0.00 41 1016.4
20260504130503 23 0 0.0 0.0 0.00 0.00 0.00 41 1016.4
20260504130427 23 0 0.0 0.0 0.00 0.00 0.00 40 1016.4
20260504130353 23 0 0.0 0.0 0.00 0.00 0.00 39 1016.5
20260504130322 23 0 0.0 0.0 0.00 0.00 0.00 39 1016.4
20260504130315 23 0 0.0 0.0 0.00 0.00 0.00 39 1016.4
20260504130245 23 0 0.0 0.0 0.00 0.00 0.00 39 1016.5
20260504130209 23 0 0.0 0.0 0.00 0.00 0.00 39 1016.5
20260504130141 23 0 0.0 0.0 0.00 0.00 0.00 39 1016.4
20260504130135 23 0 0.0 0.0 0.00 0.00 0.00 39 1016.4
20260504130111 23 0 0.0 0.0 0.00 0.00 0.00 39 1016.5
20260504130105 23 0 0.0 0.0 0.00 0.00 0.00 39 1016.5
20260504120303 23 0 0.0 0.0 0.00 0.00 0.00 41 1016.8
20260504120257 23 0 0.0 0.0 0.00 0.00 0.00 41 1016.8
20260504120229 23 0 0.0 0.0 0.00 0.00 0.00 41 1016.8
20260504120223 23 0 0.0 0.0 0.00 0.00 0.00 41 1016.8
20260504120145 23 0 0.0 0.0 0.00 0.00 0.00 41 1016.9
20260504120111 23 0 0.0 0.0 0.00 0.00 0.00 42 1016.8
20260504110712 21 0 0.0 0.0 0.00 0.00 0.00 44 1017.3
20260504110705 21 0 0.0 0.0 0.00 0.00 0.00 44 1017.3
20260504110637 21 0 0.0 0.0 0.00 0.00 0.00 45 1017.3
20260504110631 21 0 0.0 0.0 0.00 0.00 0.00 45 1017.3
20260504110605 21 0 0.0 0.0 0.00 0.00 0.00 45 1017.3
20260504110559 21 0 0.0 0.0 0.00 0.00 0.00 45 1017.3
20260504110523 21 0 0.0 0.0 0.00 0.00 0.00 45 1017.3
20260504110453 21 0 0.0 0.0 0.00 0.00 0.00 45 1017.3
20260504110447 21 0 0.0 0.0 0.00 0.00 0.00 45 1017.3
20260504110417 21 0 0.0 0.0 0.00 0.00 0.00 45 1017.3
20260504110411 21 0 0.0 0.0 0.00 0.00 0.00 45 1017.3
20260504110342 21 0 0.0 0.0 0.00 0.00 0.00 46 1017.3
20260504110335 21 0 0.0 0.0 0.00 0.00 0.00 46 1017.3
20260504110303 21 0 0.0 0.0 0.00 0.00 0.00 47 1017.3
20260504110235 21 0 0.0 0.0 0.00 0.00 0.00 47 1017.4
20260504110229 21 0 0.0 0.0 0.00 0.00 0.00 47 1017.4
20260504110159 21 0 0.0 0.0 0.00 0.00 0.00 46 1017.3
20260504110153 21 0 0.0 0.0 0.00 0.00 0.00 46 1017.3
20260504110121 21 0 0.0 0.0 0.00 0.00 0.00 47 1017.4
20260504100606 21 0 0.0 0.0 0.00 0.00 0.00 45 1017.7
20260504100531 21 0 0.0 0.0 0.00 0.00 0.00 47 1017.8
20260504100500 21 0 0.0 0.0 0.00 0.00 0.00 46 1017.7
20260504100423 21 0 0.0 0.0 0.00 0.00 0.00 44 1017.7
20260504100348 21 0 0.0 0.0 0.00 0.00 0.00 47 1017.7
20260504100320 21 0 0.0 0.0 0.00 0.00 0.00 46 1017.7
20260504100314 21 0 0.0 0.0 0.00 0.00 0.00 46 1017.7
20260504100238 21 0 0.0 0.0 0.00 0.00 0.00 46 1017.7
20260504100209 21 0 0.0 0.0 0.00 0.00 0.00 46 1017.8
20260504100130 21 0 0.0 0.0 0.00 0.00 0.00 45 1017.8
20260504090118 18 0 0.0 0.0 0.00 0.00 0.00 48 1017.9
20260504090112 18 0 0.0 0.0 0.00 0.00 0.00 48 1017.9
20260504082004 18 0 0.0 0.0 0.00 0.00 0.00 49 1017.7
20260504081922 18 0 0.0 0.0 0.00 0.00 0.00 50 1017.7
20260504081856 18 0 0.0 0.0 0.00 0.00 0.00 50 1017.7
20260504081850 18 0 0.0 0.0 0.00 0.00 0.00 50 1017.7
20260504081812 18 0 0.0 0.0 0.00 0.00 0.00 49 1017.7
20260504081742 18 0 0.0 0.0 0.00 0.00 0.00 49 1017.6
20260504081709 18 0 0.0 0.0 0.00 0.00 0.00 49 1017.7
20260504081702 18 0 0.0 0.0 0.00 0.00 0.00 49 1017.7
20260504081634 18 0 0.0 0.0 0.00 0.00 0.00 50 1017.7
20260504081628 18 0 0.0 0.0 0.00 0.00 0.00 50 1017.7
20260504081558 18 0 0.0 0.0 0.00 0.00 0.00 50 1017.6
20260504081554 18 0 0.0 0.0 0.00 0.00 0.00 50 1017.6
20260504081522 18 0 0.0 0.0 0.00 0.00 0.00 50 1017.6
20260504081444 18 0 0.0 0.0 0.00 0.00 0.00 51 1017.6
20260504081408 17 0 0.0 0.0 0.00 0.00 0.00 51 1017.6
20260504081325 17 0 0.0 0.0 0.00 0.00 0.00 51 1017.6
20260504081318 17 0 0.0 0.0 0.00 0.00 0.00 51 1017.6
20260504081242 17 0 0.0 0.0 0.00 0.00 0.00 51 1017.6
20260504081213 17 0 0.0 0.0 0.00 0.00 0.00 51 1017.6
20260504081206 17 0 0.0 0.0 0.00 0.00 0.00 51 1017.6
20260504081132 17 0 0.0 0.0 0.00 0.00 0.00 53 1017.6
20260504081126 17 0 0.0 0.0 0.00 0.00 0.00 53 1017.6
20260504081050 17 0 0.0 0.0 0.00 0.00 0.00 51 1017.6
20260504081014 17 0 0.0 0.0 0.00 0.00 0.00 50 1017.6
20260504080949 17 0 0.0 0.0 0.00 0.00 0.00 51 1017.6
20260504080942 17 0 0.0 0.0 0.00 0.00 0.00 51 1017.6
20260504080909 17 0 0.0 0.0 0.00 0.00 0.00 50 1017.6
20260504080902 17 0 0.0 0.0 0.00 0.00 0.00 50 1017.6
20260504080826 17 0 0.0 0.0 0.00 0.00 0.00 51 1017.5
20260504080754 17 0 0.0 0.0 0.00 0.00 0.00 50 1017.6
20260504080724 17 0 0.0 0.0 0.00 0.00 0.00 52 1017.5
20260504080718 17 0 0.0 0.0 0.00 0.00 0.00 52 1017.5
20260504080644 17 0 0.0 0.0 0.00 0.00 0.00 52 1017.5
20260504080616 17 0 0.0 0.0 0.00 0.00 0.00 51 1017.5
20260504080610 17 0 0.0 0.0 0.00 0.00 0.00 51 1017.5
20260504080540 17 0 0.0 0.0 0.00 0.00 0.00 52 1017.5
20260504080534 17 0 0.0 0.0 0.00 0.00 0.00 52 1017.5
20260504080506 17 0 0.0 0.0 0.00 0.00 0.00 52 1017.5
20260504080500 17 0 0.0 0.0 0.00 0.00 0.00 52 1017.5
20260504080424 17 0 0.0 0.0 0.00 0.00 0.00 53 1017.5
20260504080352 17 0 0.0 0.0 0.00 0.00 0.00 51 1017.5
20260504080318 17 0 0.0 0.0 0.00 0.00 0.00 53 1017.5
20260504080238 17 0 0.0 0.0 0.00 0.00 0.00 51 1017.5
20260504080204 17 0 0.0 0.0 0.00 0.00 0.00 51 1017.4
20260504080136 17 0 0.0 0.0 0.00 0.00 0.00 52 1017.5
20260504080106 17 0 0.0 0.0 0.00 0.00 0.00 52 1017.5
20260504070410 17 0 0.0 0.0 0.00 0.00 0.00 51 1017.0
20260504070340 17 0 0.0 0.0 0.00 0.00 0.00 50 1017.0
20260504070334 17 0 0.0 0.0 0.00 0.00 0.00 50 1017.0
20260504070258 17 0 0.0 0.0 0.00 0.00 0.00 51 1017.0
20260504070220 17 0 0.0 0.0 0.00 0.00 0.00 50 1017.0
20260504070144 17 0 0.0 0.0 0.00 0.00 0.00 50 1017.0
20260504070108 17 0 0.0 0.0 0.00 0.00 0.00 51 1017.0
20260504060244 12 0 0.0 0.0 0.00 0.00 0.00 63 1016.9
20260504060210 12 0 0.0 0.0 0.00 0.00 0.00 63 1016.9
20260504060136 12 0 0.0 0.0 0.00 0.00 0.00 64 1016.9
20260504060104 12 0 0.0 0.0 0.00 0.00 0.00 63 1016.9